Date,TemperatureHighF,TemperatureAvgF,TemperatureLowF,DewpointHighF,DewpointAvgF,DewpointLowF,HumidityHigh,HumidityAvg,HumidityLow,PressureMaxIn,PressureMinIn,WindSpeedMaxMPH,WindSpeedAvgMPH,GustSpeedMaxMPH,PrecipitationSumIn
2013-9-1,81.5,72.4,67.6,75.1,67.8,63.8,88,85,78,29.82,29.75,5,0,58,0.34
2013-9-2,78.6,72.7,68.7,73.5,68.3,64.7,88,86,81,29.79,29.64,13,0,17,0.20
2013-9-3,75.0,68.2,58.3,68.6,62.4,53.1,89,82,69,29.80,29.65,8,0,11,0.00
2013-9-4,80.2,64.6,52.2,61.1,54.4,48.4,88,72,45,29.88,29.79,9,1,17,0.00
2013-9-5,73.9,60.8,47.5,61.7,51.2,41.6,87,72,47,30.10,29.83,8,0,8,0.00
2013-9-6,70.0,53.8,39.7,48.8,42.7,35.3,86,69,42,30.21,30.06,3,0,6,0.00
2013-9-7,79.7,59.2,41.9,58.4,48.7,37.4,85,70,46,30.06,29.82,14,0,14,0.00
2013-9-8,74.8,64.0,54.1,60.9,53.6,42.4,85,71,47,29.97,29.74,7,1,8,0.00
2013-9-9,69.1,60.7,52.5,50.7,48.3,45.5,77,64,51,30.12,30.08,3,0,3,0.00
2013-9-10,75.9,64.0,51.4,69.9,58.9,45.1,87,84,77,30.09,29.97,7,0,8,0.67
2013-9-11,92.6,76.1,63.5,78.2,68.2,59.9,88,78,60,30.03,29.88,21,3,21,0.02
2013-9-12,85.8,72.4,64.2,74.0,66.1,59.9,87,81,67,29.92,29.62,9,0,13,1.65
2013-9-13,76.0,66.1,57.4,66.5,60.1,51.3,88,81,67,29.75,29.55,7,0,13,0.04
2013-9-14,67.3,57.5,48.4,52.7,49.0,44.1,86,74,58,30.02,29.75,5,0,7,0.00
2013-9-15,70.3,55.0,40.6,53.6,46.6,36.5,86,75,53,30.14,30.00,9,0,13,0.00
2013-9-16,67.8,56.3,46.0,57.6,48.4,35.7,86,75,60,30.22,29.98,5,0,5,0.06
2013-9-17,63.2,49.8,38.8,45.2,38.8,32.1,81,67,49,30.38,30.22,5,0,7,0.00
2013-9-18,70.5,50.2,34.9,53.2,41.7,30.2,84,74,53,30.29,30.09,7,0,14,0.00
2013-9-19,74.5,55.7,38.8,57.2,46.8,34.4,86,73,50,30.11,29.98,17,0,18,0.00
2013-9-20,77.5,58.0,41.2,61.4,49.5,37.0,86,75,54,30.04,29.93,17,0,17,0.00
2013-9-21,75.0,63.0,50.7,62.9,56.1,45.7,85,79,64,29.98,29.62,7,0,9,0.02
2013-9-22,68.2,60.9,49.8,62.2,51.4,41.5,87,72,53,29.82,29.55,8,1,10,0.67
2013-9-23,63.1,50.3,38.1,46.2,40.3,33.4,85,70,52,29.98,29.82,6,1,7,0.00
2013-9-24,66.0,49.6,34.3,46.3,39.2,29.7,84,69,45,29.98,29.78,8,1,10,0.00
2013-9-25,69.1,53.6,37.2,52.7,44.6,32.8,85,73,53,29.93,29.81,0,0,0,0.00
2013-9-26,65.8,56.3,46.0,49.7,46.9,40.5,83,72,55,30.07,29.93,0,0,0,0.00
2013-9-27,65.1,54.9,45.1,52.6,47.6,40.5,84,77,62,30.23,30.06,0,0,0,0.00
2013-9-28,73.4,55.7,43.3,57.8,48.0,38.8,86,77,57,30.29,30.19,15,0,18,0.00
2013-9-29,70.2,53.8,42.6,56.9,46.0,38.4,86,76,55,30.20,30.03,3,0,13,0.00
2013-9-30,70.3,52.9,39.4,55.3,44.6,35.2,86,75,53,30.06,29.90,0,0,0,0.00